BEIDOU-2 IGSO-6

Last updated on Mon Nov 03 2025 00:02:58 GMT+0000 (Coordinated Universal Time)

1 41434U 16021A 25305.72743602 -.00000157 00000+0 00000+0 0 9994 2 41434 59.9084 40.3128 0058287 229.4135 127.2456 1.00261707 35196
UTC large
Height (km)
Speed (km/s)
/
Latitude / Longitude
Inclination (degrees)
Orbital Period (minutes)
Azimuth
Elevation
Range (km)
Doppler Factor

Next 0 passes for location: London (51.5072 / 0.1276)

Sorry there are no passes over London.